This is the latest recevied weather packets stored in our database for station/object DG4MND-4. If no packets are shown the sender has not sent any weather packets the latest 1 day(s).
| Time | Temp. | Humidity | Pressure | Rain* | Wind** | Luminosity | Snow |
|---|---|---|---|---|---|---|---|
| 1778090440 | 10° C | 88% | 1008.3 hPa | 0 mm | - | - | - |
| 1778089834 | 10° C | 87% | 1008 hPa | 0 mm | - | - | - |
| 1778088627 | 10° C | 87% | 1008 hPa | 0 mm | - | - | - |
| 1778085670 | 10° C | 89% | 1007.3 hPa | 0 mm | - | - | - |
| 1778083256 | 10.56° C | 88% | 1007.4 hPa | 1.52 mm | - | - | - |
| 1778080842 | 11.11° C | 93% | 1006.9 hPa | 1.52 mm | - | - | - |
| 1778080238 | 10.56° C | 93% | 1006.5 hPa | 1.52 mm | - | - | - |
| 1778079034 | 16.11° C | 73% | 1004.7 hPa | 0.25 mm | - | - | - |
| 1778078428 | 18.33° C | 67% | 1004.7 hPa | 1.02 mm | - | - | - |
| 1778076075 | 15° C | 89% | 1004.9 hPa | 1.52 mm | - | - | - |
| 1778072454 | 16.11° C | 64% | 1005.2 hPa | 0 mm | - | - | - |
| 1778067023 | 17.22° C | 59% | 1005.1 hPa | 0 mm | - | - | - |
| 1778066422 | 17.22° C | 58% | 1005.2 hPa | 0 mm | - | - | - |
| 1778064065 | 16.67° C | 68% | 1005.4 hPa | 0 mm | - | - | - |
| 1778063462 | 16.67° C | 68% | 1005.2 hPa | 0 mm | - | - | - |
| 1778062859 | 15.56° C | 68% | 1005.4 hPa | 0 mm | - | - | - |
| 1778060445 | 15.56° C | 69% | 1005.9 hPa | 0 mm | - | - | - |
| 1778059844 | 16.11° C | 68% | 1006 hPa | 0 mm | - | - | - |
| 1778058034 | 15° C | 71% | 1006 hPa | 0 mm | - | - | - |
| 1778057428 | 15° C | 74% | 1005.9 hPa | 0 mm | - | - | - |
| 1778056824 | 14.44° C | 74% | 1005.7 hPa | 0 mm | - | - | - |
| 1778056221 | 13.89° C | 78% | 1006 hPa | 0 mm | - | - | - |
| 1778055074 | 13.33° C | 82% | 1006.1 hPa | 0 mm | - | - | - |
| 1778054471 | 13.33° C | 81% | 1006 hPa | 0 mm | - | - | - |
| 1778053264 | 12.78° C | 84% | 1005.9 hPa | 0 mm | - | - | - |
* Rain latest hour (hover to see other rain measurements)
** Current wind speed in m/s (hover to see current wind gust speed)